Weather History for Hebbronville, TX

Change the Weather History Date:

Friday, November 9, 2012

  Actual Average (KLRD) Record (KLRD)
Temperature  
Mean Temperature 74 °F 68 °F  
Max Temperature 86 °F 79 °F 95 °F (1966)
Min Temperature 61 °F 58 °F 30 °F (1913)
Degree Days  
Heating Degree Days 0 2  
Month to date heating degree days 15  
Since 1 July heating degree days 27  
Cooling Degree Days 8 5  
Month to date cooling degree days 57  
Year to date cooling degree days 4186  
Growing Degree Days 24 (Base 50)    
Moisture  
Dew Point 58 °F    
Average Humidity 64    
Maximum Humidity 94    
Minimum Humidity 30    
Precipitation  
Precipitation 0.00 in 0.04 in 1.73 in (1928)
Month to date precipitation 0.42  
Year to date precipitation 18.55  
Sea Level Pressure  
Sea Level Pressure 30.01 in    
Wind  
Wind Speed 11 mph (SE)    
Max Wind Speed 24 mph    
Max Gust Speed 34 mph    
Visibility 10 miles    
Events      
T = Trace of Precipitation, MM = Missing Value Source: NWS Daily Summary

Daily Weather History Graph

Daily Weather History Graph

Search for Another Location

Airport:

Trip Planner

Search our weather history database for the weather conditions in past years. The results will help you decide how hot, cold, wet, or windy it might be!

Date:

Astronomy

Nov. 09, 2012 Rise Set
Actual Time 6:51 AM CST 5:45 PM CST
Civil Twilight 6:26 AM CST 6:10 PM CST
Nautical Twilight 5:58 AM CST 6:38 PM CST
Astronomical Twilight 5:31 AM CST 7:05 PM CST
Moon 2:15 AM CST (11/9) 2:39 PM CST (11/9)
Length of Visible Light 11h 43m
Length of Day
10h 54m
Waning Crescent, 23% of the Moon is Illuminated
Nov 9
Waning Crescent
Nov 13
New
Nov 20
First Quarter
Nov 28
Full
Dec 6
Last Quarter

Hourly Weather History & Observations

Time (CST) Temp. Heat Index Dew Point Humidity Pressure Visibility Wind Dir Wind Speed Gust Speed Precip Events Conditions
12:15 AM 68.2 °F - 61.9 °F 80% 30.06 in 10.0 mi SE 9.2 mph - N/A   Clear
12:35 AM 68.0 °F - 61.9 °F 81% 30.06 in 10.0 mi SE 9.2 mph - N/A   Clear
12:55 AM 67.6 °F - 61.9 °F 82% 30.05 in 10.0 mi SE 10.4 mph - N/A   Clear
1:15 AM 67.5 °F - 62.1 °F 83% 30.05 in 10.0 mi SE 8.1 mph - N/A   Clear
1:35 AM 66.9 °F - 62.1 °F 84% 30.05 in 10.0 mi SE 9.2 mph - N/A   Clear
1:55 AM 66.2 °F - 61.7 °F 85% 30.04 in 10.0 mi SE 8.1 mph - N/A   Clear
2:15 AM 65.8 °F - 61.7 °F 86% 30.04 in 10.0 mi SSE 6.9 mph - N/A   Clear
2:35 AM 65.5 °F - 61.7 °F 88% 30.04 in 10.0 mi SE 5.8 mph - N/A   Clear
2:55 AM 64.8 °F - 61.5 °F 89% 30.03 in 10.0 mi SE 5.8 mph - N/A   Clear
3:15 AM 64.2 °F - 61.3 °F 90% 30.02 in 10.0 mi SE 6.9 mph - N/A   Clear
3:35 AM 64.0 °F - 61.3 °F 91% 30.02 in 10.0 mi SE 8.1 mph - N/A   Clear
3:55 AM 64.2 °F - 61.3 °F 90% 30.02 in 10.0 mi SE 9.2 mph - N/A   Clear
4:15 AM 64.0 °F - 61.2 °F 90% 30.01 in 10.0 mi ESE 10.4 mph - N/A   Clear
4:35 AM 64.0 °F - 61.0 °F 90% 30.01 in 10.0 mi SE 8.1 mph - N/A   Clear
4:55 AM 63.9 °F - 60.8 °F 90% 30.02 in 10.0 mi SE 5.8 mph - N/A   Clear
5:15 AM 63.7 °F - 60.8 °F 90% 30.02 in 10.0 mi SE 8.1 mph - N/A   Clear
5:35 AM 63.0 °F - 60.4 °F 91% 30.02 in 10.0 mi SE 6.9 mph - N/A   Scattered Clouds
5:55 AM 62.4 °F - 60.1 °F 92% 30.02 in 10.0 mi SE 4.6 mph - N/A   Clear
6:15 AM 61.9 °F - 59.9 °F 93% 30.02 in 10.0 mi SE 4.6 mph - N/A   Clear
6:35 AM 61.5 °F - 59.7 °F 94% 30.03 in 10.0 mi ESE 3.5 mph - N/A   Clear
6:55 AM 61.5 °F - 59.9 °F 94% 30.03 in 10.0 mi ESE 5.8 mph - N/A   Clear
7:15 AM 62.2 °F - 60.6 °F 94% 30.04 in 10.0 mi ESE 5.8 mph - N/A   Clear
7:35 AM 63.0 °F - 61.2 °F 94% 30.04 in 10.0 mi ESE 6.9 mph - N/A   Clear
7:55 AM 64.6 °F - 62.2 °F 92% 30.05 in 10.0 mi ESE 9.2 mph - N/A   Clear
8:15 AM 66.2 °F - 62.6 °F 88% 30.05 in 10.0 mi SE 11.5 mph - N/A   Clear
8:35 AM 67.6 °F - 62.8 °F 84% 30.06 in 10.0 mi SE 11.5 mph - N/A   Clear
8:55 AM 69.4 °F - 63.1 °F 80% 30.06 in 10.0 mi SE 15.0 mph 19.6 mph N/A   Clear
9:15 AM 71.6 °F - 63.1 °F 75% 30.06 in 10.0 mi SE 17.3 mph 20.7 mph N/A   Clear
9:35 AM 73.6 °F - 63.0 °F 69% 30.07 in 10.0 mi SSE 20.7 mph 31.1 mph N/A   Clear
9:55 AM 75.0 °F - 62.8 °F 66% 30.07 in 10.0 mi SSE 19.6 mph 28.8 mph N/A   Clear
10:15 AM 76.1 °F - 62.4 °F 62% 30.07 in 10.0 mi SSE 23.0 mph 28.8 mph N/A   Clear
10:35 AM 77.2 °F - 61.7 °F 59% 30.06 in 10.0 mi SSE 20.7 mph 31.1 mph N/A   Clear
10:55 AM 79.3 °F - 60.3 °F 52% 30.06 in 10.0 mi SSE 21.9 mph 26.5 mph N/A   Clear
11:15 AM 81.0 °F 81.0 °F 57.4 °F 44% 30.06 in 10.0 mi SE 21.9 mph 29.9 mph N/A   Clear
11:35 AM 81.9 °F 81.7 °F 57.0 °F 43% 30.04 in 10.0 mi SSE 20.7 mph 29.9 mph N/A   Clear
11:55 AM 82.8 °F 82.2 °F 56.7 °F 41% 30.03 in 10.0 mi SSE 18.4 mph 27.6 mph N/A   Clear
12:15 PM 83.7 °F 82.8 °F 56.1 °F 39% 30.02 in 10.0 mi SSE 24.2 mph 34.5 mph N/A   Clear
12:55 PM 84.6 °F 83.2 °F 54.5 °F 36% 30.00 in 10.0 mi SSE 17.3 mph 29.9 mph N/A   Clear
1:15 PM 84.9 °F 83.4 °F 54.7 °F 35% 29.99 in 10.0 mi SE 18.4 mph 28.8 mph N/A   Clear
1:35 PM 85.6 °F 83.8 °F 53.8 °F 33% 29.98 in 10.0 mi SE 18.4 mph 28.8 mph N/A   Clear
1:55 PM 85.8 °F 84.0 °F 53.6 °F 33% 29.96 in 10.0 mi SE 20.7 mph 29.9 mph N/A   Clear
2:15 PM 86.0 °F - 52.9 °F 32% 29.96 in 10.0 mi SSE 18.4 mph 26.5 mph N/A   Clear
2:35 PM 86.2 °F 84.2 °F 53.1 °F 32% 29.96 in 10.0 mi SE 15.0 mph 24.2 mph N/A   Clear
2:55 PM 86.0 °F 84.2 °F 53.8 °F 33% 29.95 in 10.0 mi SSE 17.3 mph 25.3 mph N/A   Clear
3:15 PM 86.0 °F - 52.5 °F 32% 29.94 in 10.0 mi SSE 17.3 mph 24.2 mph N/A   Clear
3:35 PM 86.2 °F - 50.9 °F 30% 29.94 in 10.0 mi SE 18.4 mph 25.3 mph N/A   Clear
3:55 PM 85.6 °F - 51.1 °F 30% 29.94 in 10.0 mi SE 19.6 mph 23.0 mph N/A   Clear
4:15 PM 85.1 °F - 50.7 °F 30% 29.94 in 10.0 mi SE 19.6 mph 27.6 mph N/A   Clear
4:35 PM 84.6 °F - 49.8 °F 30% 29.95 in 10.0 mi SE 19.6 mph 26.5 mph N/A   Clear
4:55 PM 83.7 °F - 49.3 °F 30% 29.95 in 10.0 mi SE 18.4 mph 24.2 mph N/A   Clear
5:15 PM 82.8 °F - 48.9 °F 31% 29.95 in 10.0 mi SE 13.8 mph - N/A   Clear
5:35 PM 81.7 °F - 50.5 °F 34% 29.95 in 10.0 mi SE 17.3 mph 21.9 mph N/A   Clear
5:55 PM 80.6 °F 80.4 °F 54.3 °F 40% 29.96 in 10.0 mi SE 15.0 mph 18.4 mph N/A   Clear
6:15 PM 79.5 °F - 55.8 °F 44% 29.97 in 10.0 mi SE 12.7 mph 19.6 mph N/A   Clear
6:35 PM 78.8 °F - 57.0 °F 47% 29.98 in 10.0 mi SE 12.7 mph 18.4 mph N/A   Clear
6:55 PM 77.9 °F - 57.2 °F 49% 29.99 in 10.0 mi SE 12.7 mph 20.7 mph N/A   Clear
7:15 PM 77.0 °F - 56.3 °F 49% 29.99 in 10.0 mi SE 11.5 mph 17.3 mph N/A   Clear
7:55 PM 75.7 °F - 56.3 °F 51% 30.00 in 10.0 mi SE 13.8 mph - N/A   Clear
8:15 PM 74.8 °F - 56.5 °F 53% 30.01 in 10.0 mi SE 12.7 mph - N/A   Clear
8:35 PM 74.3 °F - 57.7 °F 56% 30.01 in 10.0 mi SE 13.8 mph 20.7 mph N/A   Clear
8:55 PM 73.6 °F - 58.5 °F 59% 30.02 in 10.0 mi SE 12.7 mph - N/A   Clear
9:15 PM 72.9 °F - 58.8 °F 61% 30.02 in 10.0 mi SE 15.0 mph 19.6 mph N/A   Clear
9:35 PM 72.3 °F - 59.2 °F 63% 30.02 in 10.0 mi SE 11.5 mph - N/A   Clear
9:55 PM 71.4 °F - 59.2 °F 65% 30.03 in 10.0 mi SE 9.2 mph - N/A   Clear
10:15 PM 70.3 °F - 58.8 °F 67% 30.03 in 10.0 mi SE 11.5 mph - N/A   Clear
10:35 PM 69.4 °F - 58.6 °F 68% 30.03 in 10.0 mi SE 10.4 mph - N/A   Clear
10:55 PM 68.5 °F - 58.8 °F 71% 30.03 in 10.0 mi SE 8.1 mph - N/A   Clear
11:15 PM 68.2 °F - 59.5 °F 74% 30.03 in 10.0 mi SE 10.4 mph - N/A   Clear
11:35 PM 68.0 °F - 60.1 °F 76% 30.02 in 10.0 mi SE 11.5 mph 17.3 mph N/A   Clear
11:55 PM 68.0 °F - 60.6 °F 77% 30.02 in 10.0 mi SE 10.4 mph - N/A   Clear